TimeEST,TemperatureF,Dew PointF,Humidity,Sea Level PressureIn,VisibilityMPH,Wind Direction,Wind SpeedMPH,Gust SpeedMPH,PrecipitationIn,Events,Conditions,WindDirDegrees,DateUTC
12:14 AM,27.1,22.5,83,29.82,7.0,WSW,3.5,-,N/A,Snow,Light Snow,250,2013-02-24 05:14:00
12:34 AM,26.6,22.1,83,29.82,7.0,WSW,4.6,-,N/A,Snow,Light Snow,240,2013-02-24 05:34:00
12:54 AM,26.4,22.1,84,29.82,10.0,WSW,4.6,-,N/A,,Scattered Clouds,240,2013-02-24 05:54:00
1:14 AM,26.6,22.1,83,29.82,10.0,WSW,5.8,-,N/A,,Mostly Cloudy,250,2013-02-24 06:14:00
1:34 AM,26.8,22.1,83,29.83,10.0,West,6.9,-,N/A,,Overcast,260,2013-02-24 06:34:00
1:54 AM,27.0,22.1,82,29.83,5.0,West,6.9,-,N/A,Snow,Light Snow,260,2013-02-24 06:54:00
2:14 AM,26.8,22.6,84,29.84,7.0,WSW,5.8,-,N/A,Snow,Light Snow,250,2013-02-24 07:14:00
2:33 AM,27.0,22.5,83,29.84,7.0,WSW,4.6,-,N/A,Snow,Light Snow,240,2013-02-24 07:33:00
2:54 AM,27.3,22.8,83,29.84,5.0,WSW,4.6,-,N/A,Snow,Light Snow,240,2013-02-24 07:54:00
3:14 AM,27.3,23.4,85,29.84,1.8,WSW,3.5,-,N/A,Snow,Light Snow,240,2013-02-24 08:14:00
3:33 AM,27.5,23.9,86,29.84,5.0,SW,4.6,-,N/A,Snow,Light Snow,230,2013-02-24 08:33:00
3:54 AM,27.5,23.7,86,29.84,7.0,WSW,4.6,-,N/A,,Overcast,240,2013-02-24 08:54:00
4:14 AM,27.9,23.9,85,29.84,10.0,WSW,4.6,-,N/A,,Overcast,240,2013-02-24 09:14:00
4:33 AM,28.0,24.1,85,29.84,10.0,WSW,5.8,-,N/A,,Overcast,250,2013-02-24 09:33:00
4:54 AM,28.4,24.4,85,29.84,10.0,WSW,6.9,-,N/A,,Overcast,240,2013-02-24 09:54:00
5:14 AM,28.4,24.6,86,29.84,10.0,West,4.6,-,N/A,Snow,Light Snow,260,2013-02-24 10:14:00
5:33 AM,28.8,24.8,85,29.86,7.0,WSW,4.6,-,N/A,Snow,Light Snow,250,2013-02-24 10:33:00
5:54 AM,28.8,25.0,86,29.86,5.0,West,5.8,-,N/A,Snow,Light Snow,260,2013-02-24 10:54:00
6:14 AM,28.9,25.3,86,29.87,7.0,West,6.9,-,N/A,Snow,Light Snow,270,2013-02-24 11:14:00
6:34 AM,29.3,25.7,86,29.88,7.0,West,8.1,-,N/A,Snow,Light Snow,280,2013-02-24 11:34:00
6:54 AM,29.3,25.7,86,29.89,10.0,WNW,8.1,-,N/A,,Overcast,290,2013-02-24 11:54:00
7:14 AM,29.7,26.2,87,29.89,7.0,West,8.1,-,N/A,,Overcast,280,2013-02-24 12:14:00
7:34 AM,29.8,25.9,85,29.90,10.0,West,6.9,-,N/A,,Overcast,280,2013-02-24 12:34:00
8:14 AM,30.2,25.5,83,29.91,7.0,West,5.8,-,N/A,Snow,Light Snow,280,2013-02-24 13:14:00
8:34 AM,30.2,25.5,83,29.93,10.0,West,6.9,-,N/A,Snow,Light Snow,270,2013-02-24 13:34:00
8:54 AM,30.6,25.7,82,29.93,10.0,WNW,8.1,-,N/A,Snow,Light Snow,300,2013-02-24 13:54:00
9:14 AM,30.9,25.5,80,29.94,10.0,WNW,9.2,-,N/A,,Overcast,300,2013-02-24 14:14:00
9:34 AM,31.5,25.0,77,29.95,10.0,NW,10.4,-,N/A,,Overcast,310,2013-02-24 14:34:00
9:54 AM,31.8,24.3,74,29.96,10.0,NW,13.8,-,N/A,,Overcast,310,2013-02-24 14:54:00
10:14 AM,32.0,24.3,73,29.96,10.0,NW,5.8,-,N/A,Snow,Light Snow,310,2013-02-24 15:14:00
10:34 AM,32.2,23.9,72,29.97,10.0,NW,8.1,-,N/A,Snow,Light Snow,310,2013-02-24 15:34:00
10:54 AM,32.0,24.3,73,29.98,10.0,WNW,9.2,-,N/A,Snow,Light Snow,300,2013-02-24 15:54:00
11:14 AM,32.5,23.9,70,29.98,10.0,NW,13.8,-,N/A,,Overcast,310,2013-02-24 16:14:00
11:34 AM,32.9,23.2,67,29.98,10.0,NW,11.5,19.6,N/A,,Overcast,320,2013-02-24 16:34:00
11:54 AM,33.3,22.3,64,29.99,10.0,NW,10.4,-,N/A,,Overcast,320,2013-02-24 16:54:00
12:14 PM,33.1,22.1,64,30.00,10.0,WNW,10.4,-,N/A,,Overcast,290,2013-02-24 17:14:00
12:34 PM,33.1,22.8,66,30.00,10.0,NW,8.1,-,N/A,,Overcast,310,2013-02-24 17:34:00
12:54 PM,33.8,21.9,62,30.00,10.0,NW,10.4,-,N/A,,Overcast,320,2013-02-24 17:54:00
1:14 PM,33.8,21.9,62,30.00,10.0,NW,10.4,16.1,N/A,,Overcast,310,2013-02-24 18:14:00
1:34 PM,34.3,22.3,61,30.00,10.0,NNW,9.2,-,N/A,,Overcast,330,2013-02-24 18:34:00
1:54 PM,34.5,20.3,56,30.00,10.0,NW,9.2,-,N/A,,Mostly Cloudy,310,2013-02-24 18:54:00
2:13 PM,35.4,20.5,55,30.00,10.0,NW,9.2,-,N/A,,Mostly Cloudy,310,2013-02-24 19:13:00
2:34 PM,34.9,19.9,55,30.00,10.0,NNW,8.1,-,N/A,,Overcast,340,2013-02-24 19:34:00
2:54 PM,34.7,21.4,58,30.01,10.0,NW,10.4,-,N/A,,Overcast,320,2013-02-24 19:54:00
3:14 PM,34.7,22.3,61,30.01,10.0,WNW,9.2,-,N/A,,Overcast,290,2013-02-24 20:14:00
3:34 PM,35.1,20.5,55,30.02,10.0,WNW,6.9,-,N/A,,Overcast,300,2013-02-24 20:34:00
3:54 PM,34.7,22.3,61,30.03,10.0,WNW,8.1,-,N/A,,Overcast,290,2013-02-24 20:54:00
4:14 PM,34.2,23.2,64,30.03,10.0,WNW,8.1,-,N/A,,Overcast,290,2013-02-24 21:14:00
4:34 PM,34.3,22.5,62,30.04,10.0,WNW,6.9,-,N/A,,Overcast,290,2013-02-24 21:34:00
4:54 PM,34.2,22.3,62,30.05,10.0,WNW,10.4,-,N/A,,Overcast,290,2013-02-24 21:54:00
5:14 PM,34.2,22.6,63,30.05,10.0,WNW,6.9,-,N/A,,Overcast,300,2013-02-24 22:14:00
5:34 PM,34.3,21.9,60,30.06,10.0,NW,4.6,-,N/A,,Overcast,310,2013-02-24 22:34:00
5:53 PM,34.0,22.5,63,30.06,10.0,WNW,4.6,-,N/A,,Overcast,290,2013-02-24 22:53:00
6:14 PM,33.8,22.1,62,30.06,10.0,NW,4.6,-,N/A,,Overcast,310,2013-02-24 23:14:00
6:34 PM,32.9,23.4,68,30.06,10.0,West,5.8,-,N/A,,Overcast,280,2013-02-24 23:34:00
6:53 PM,32.0,24.1,73,30.07,10.0,WNW,4.6,-,N/A,,Overcast,300,2013-02-24 23:53:00
7:14 PM,32.0,23.9,72,30.07,10.0,NW,3.5,-,N/A,,Overcast,310,2013-02-25 00:14:00
7:34 PM,32.0,23.9,72,30.08,10.0,WNW,4.6,-,N/A,,Overcast,300,2013-02-25 00:34:00
7:53 PM,32.0,24.4,74,30.08,10.0,WNW,5.8,-,N/A,,Overcast,290,2013-02-25 00:53:00
8:14 PM,32.0,24.4,74,30.09,10.0,WNW,4.6,-,N/A,,Overcast,290,2013-02-25 01:14:00
8:34 PM,30.9,24.1,76,30.09,10.0,WNW,5.8,-,N/A,,Overcast,290,2013-02-25 01:34:00
8:54 PM,30.0,23.5,77,30.10,10.0,WNW,5.8,-,N/A,,Overcast,300,2013-02-25 01:54:00
9:14 PM,30.6,23.7,76,30.10,10.0,NNW,4.6,-,N/A,,Overcast,340,2013-02-25 02:14:00
9:34 PM,28.4,22.8,80,30.11,10.0,WNW,5.8,-,N/A,,Mostly Cloudy,290,2013-02-25 02:34:00
9:54 PM,26.6,21.7,82,30.11,10.0,NNW,3.5,-,N/A,,Scattered Clouds,330,2013-02-25 02:54:00
10:14 PM,26.6,23.5,88,30.11,10.0,NW,3.5,-,N/A,,Clear,310,2013-02-25 03:14:00
10:34 PM,26.6,23.2,87,30.11,10.0,Calm,Calm,-,N/A,,Clear,0,2013-02-25 03:34:00
10:54 PM,21.2,19.0,91,30.11,10.0,Calm,Calm,-,N/A,,Clear,0,2013-02-25 03:54:00
11:14 PM,18.9,17.2,93,30.11,10.0,Calm,Calm,-,N/A,,Clear,0,2013-02-25 04:14:00
11:34 PM,16.0,14.2,93,30.10,5.0,Calm,Calm,-,N/A,,Clear,0,2013-02-25 04:34:00
11:54 PM,15.1,13.3,93,30.10,5.0,Calm,Calm,-,N/A,,Scattered Clouds,0,2013-02-25 04:54:00